Location: Hungerford
(51.4167°N, 1.5167°W)
Time: 08:49:30
(UTC+00:00)

Cosmos 1048 Rocket - Pass Details

Date: 24 January 2021
Orbit: 744 x 791 km, 74.0° (Epoch: 24 February)

Event Time Altitude Azimuth Distance (km) Brightness Sun altitude
Rises 17:42:51 0° 340° (NNW) 3,198 7.2 -9.4°
Reaches altitude 10° 17:46:13 10° 3° (N) 2,271 6.2 -9.9°
Maximum altitude 17:49:15 16° 40° (NE) 1,914 5.6 -10.4°
Enters shadow 17:50:56 14° 62° (ENE) 2,031 5.6 -10.6°
